Weather in Pruska

Russia / Bryansk Oblast     52°29′49″N   32°21′52″E
temp.,
°C
wind,
m/s
gust,
m/s
humid.,
%
clouds,
%
prec.,
mm/h
press.,
hPa
HPBL,
m
13 may, thu
thu1300:00+8se2494100 3.8 1014171
03:00+8e3594100 3.9 1012214
06:00+6ese489621 0.0 1011242
09:00+10se468789 0.3 1011705
12:00+11sse567979 0.8 1011855
15:00+14s5661100 0.9 10111514
18:00+13s5872100 0.3 1011530
21:00+9se4119088 0.3 1012251
14 may, fri
fri1400:00+9se41182100 0.0 1011271
03:00+9se5128999 0.0 1012246
06:00+10se51280100 0.1 1011321
09:00+11ese41080100 0.1 1011334
12:00+18se7964100 0.0 10091096
15:00+20se686844 0.1 10071265
18:00+19se3576100 1.6 1005655
21:00+14s4109087 3.7 1005195
15 may, sat
sat1500:00+12s36947 0.0 100695
03:00+11sse48961 0.0 1006174
06:00+11s4797100 0.1 1006466
09:00+12ssw5997100 0.4 1008518
12:00+14sw588878 1.0 1009755
15:00+17ssw6869100 1.1 10101247
18:00+17sw586939 0.3 1010943
21:00+12s48905 0.3 1011129
16 may, sun
sun1600:00+11ssw37955 0.0 1012117
03:00+10ssw36975 0.0 1013116
06:00+10ssw369762 0.0 1013126
09:00+15sw34805 0.0 1014451
12:00+19s336536 0.1 10141241
15:00+21s345636 0.2 10131687
18:00+20s356480 0.1 1012385
21:00+15se2279100 0.2 101211
17 may, mon
mon1700:00+14e338249 0.0 101242
03:00+13ese488899 0.0 1012126
06:00+13e41088100 0.0 1010162
09:00+18e4777100 0.0 1009287
12:00+19ene2377100 1.9 1008492
15:00+23ese246498 1.9 10061275
18:00+19wnw3486100 2.9 1005144
21:00+15wnw5897100 5.4 1006298